User: anonymous   Login
Location: Niedergestelen
(46.3129°N, 7.7822°E)
Time: 20:06:21
(UTC+00:00)
Language:

Envisat - Orbit

View from above orbital plane
View from above orbital plane
View from above satellite
View from above satellite

Ground track
Ground track

The orbit data is extracted from the following two-line orbital elements,

1 27386U 02009A   21055.46638375  .00000042  00000-0  27444-4 0  9993
2 27386  98.1445  55.3197 0001242  92.8083  60.3913 14.38013822994767
Epoch (UTC): 24 February 2021 11:11:35
Eccentricity: 0.0001242
inclination: 98.1445°
perigee height: 764 km
apogee height: 766 km
right ascension of ascending node: 55.3197°
argument of perigee: 92.8083°
revolutions per day: 14.38013822
mean anomaly at epoch: 60.3913°
orbit number at epoch: 99476

The dashed part of the orbit path shows where the satellite is in the earth's shadow,  

DLR